| time (UTC) | temp F | wind direction | speed MPH | gust MPH | rain 1hr in | rain 24hr in | rain mn in | humidity % | barometer mb |
| 20260506134410 | 63 | 46 | 2.0 | 7.0 | 0.00 | 0.09 | 0.01 | 54 | 1013.8 |
| 20260506133411 | 63 | 46 | 3.0 | 7.0 | 0.00 | 0.09 | 0.01 | 55 | 1013.8 |
| 20260506132911 | 62 | 51 | 1.0 | 6.0 | 0.00 | 0.09 | 0.01 | 54 | 1013.9 |
| 20260506132410 | 62 | 52 | 1.0 | 6.0 | 0.00 | 0.09 | 0.01 | 54 | 1013.9 |
| 20260506131910 | 63 | 73 | 1.0 | 6.0 | 0.00 | 0.09 | 0.01 | 56 | 1013.9 |
| 20260506131410 | 63 | 326 | 1.0 | 5.0 | 0.00 | 0.09 | 0.01 | 59 | 1013.9 |
| 20260506130910 | 64 | 326 | 6.0 | 10.0 | 0.00 | 0.09 | 0.01 | 56 | 1014.0 |
| 20260506130410 | 63 | 51 | 1.0 | 5.0 | 0.00 | 0.09 | 0.01 | 56 | 1014.1 |
| 20260506125910 | 63 | 50 | 1.0 | 8.0 | 0.00 | 0.09 | 0.01 | 54 | 1014.2 |
| 20260506125409 | 63 | 34 | 2.0 | 10.0 | 0.00 | 0.09 | 0.01 | 56 | 1014.1 |
| 20260506124909 | 63 | 355 | 7.0 | 12.0 | 0.00 | 0.09 | 0.01 | 53 | 1014.2 |
| 20260506124410 | 63 | 26 | 2.0 | 10.0 | 0.00 | 0.09 | 0.01 | 53 | 1014.2 |
| 20260506123910 | 63 | 49 | 3.0 | 10.0 | 0.00 | 0.09 | 0.01 | 51 | 1014.2 |
| 20260506123410 | 63 | 32 | 7.0 | 14.0 | 0.00 | 0.09 | 0.01 | 56 | 1014.3 |
| 20260506122911 | 63 | 44 | 3.0 | 8.0 | 0.00 | 0.09 | 0.01 | 60 | 1014.3 |
| 20260506122409 | 62 | 78 | 4.0 | 10.0 | 0.00 | 0.09 | 0.01 | 59 | 1014.4 |
| 20260506121411 | 63 | 58 | 3.0 | 8.0 | 0.00 | 0.09 | 0.01 | 57 | 1014.5 |
| 20260506120911 | 62 | 33 | 5.0 | 9.0 | 0.00 | 0.09 | 0.01 | 62 | 1014.6 |
| 20260506120410 | 62 | 27 | 7.0 | 12.0 | 0.00 | 0.09 | 0.01 | 56 | 1014.6 |
| 20260506115910 | 63 | 64 | 3.0 | 10.0 | 0.00 | 0.09 | 0.01 | 59 | 1014.6 |
| 20260506115410 | 62 | 46 | 3.0 | 7.0 | 0.00 | 0.09 | 0.01 | 60 | 1014.7 |
| 20260506114910 | 62 | 63 | 4.0 | 10.0 | 0.00 | 0.09 | 0.01 | 58 | 1014.9 |
| 20260506114409 | 61 | 41 | 1.0 | 6.0 | 0.00 | 0.09 | 0.01 | 60 | 1014.9 |
| 20260506113910 | 61 | 41 | 3.0 | 7.0 | 0.00 | 0.09 | 0.01 | 58 | 1015.0 |
| 20260506113410 | 60 | 46 | 2.0 | 7.0 | 0.00 | 0.09 | 0.01 | 62 | 1015.1 |
| 20260506112911 | 60 | 39 | 5.0 | 10.0 | 0.00 | 0.09 | 0.01 | 65 | 1015.1 |
| 20260506111410 | 59 | 46 | 3.0 | 7.0 | 0.00 | 0.09 | 0.01 | 66 | 1015.2 |
| 20260506110910 | 59 | 49 | 3.0 | 6.0 | 0.00 | 0.09 | 0.01 | 66 | 1015.3 |
| 20260506110410 | 59 | 50 | 5.0 | 7.0 | 0.00 | 0.09 | 0.01 | 65 | 1015.4 |
| 20260506105911 | 59 | 39 | 5.0 | 9.0 | 0.00 | 0.09 | 0.01 | 64 | 1015.4 |
| 20260506105410 | 60 | 32 | 5.0 | 10.0 | 0.00 | 0.09 | 0.01 | 65 | 1015.3 |
| 20260506104910 | 59 | 47 | 5.0 | 7.0 | 0.00 | 0.09 | 0.01 | 65 | 1015.4 |
| 20260506103910 | 59 | 34 | 6.0 | 10.0 | 0.00 | 0.09 | 0.01 | 66 | 1015.4 |
| 20260506102911 | 59 | 57 | 3.0 | 8.0 | 0.00 | 0.09 | 0.01 | 68 | 1015.5 |
| 20260506102410 | 59 | 47 | 2.0 | 7.0 | 0.00 | 0.09 | 0.01 | 70 | 1015.6 |
| 20260506101910 | 59 | 28 | 6.0 | 9.0 | 0.00 | 0.09 | 0.01 | 71 | 1015.6 |
| 20260506101410 | 58 | 38 | 2.0 | 7.0 | 0.00 | 0.09 | 0.01 | 72 | 1015.6 |
| 20260506100910 | 58 | 36 | 6.0 | 8.0 | 0.00 | 0.09 | 0.01 | 73 | 1015.6 |
| 20260506100410 | 58 | 47 | 3.0 | 6.0 | 0.00 | 0.09 | 0.01 | 71 | 1015.6 |
| 20260506095911 | 57 | 40 | 0.0 | 2.0 | 0.00 | 0.09 | 0.01 | 75 | 1015.7 |
| 20260506095410 | 57 | 40 | 1.0 | 7.0 | 0.00 | 0.09 | 0.01 | 72 | 1015.8 |
| 20260506094910 | 58 | 49 | 2.0 | 6.0 | 0.00 | 0.09 | 0.01 | 76 | 1015.8 |
| 20260506094410 | 58 | 30 | 5.0 | 8.0 | 0.00 | 0.09 | 0.01 | 76 | 1015.8 |
| 20260506093910 | 57 | 41 | 3.0 | 8.0 | 0.00 | 0.09 | 0.01 | 75 | 1015.9 |
| 20260506093410 | 57 | 35 | 5.0 | 7.0 | 0.00 | 0.09 | 0.01 | 77 | 1015.9 |
| 20260506092911 | 57 | 34 | 2.0 | 6.0 | 0.00 | 0.09 | 0.01 | 75 | 1015.9 |
| 20260506092410 | 56 | 35 | 4.0 | 7.0 | 0.00 | 0.09 | 0.01 | 78 | 1016.0 |
| 20260506091910 | 56 | 68 | 2.0 | 7.0 | 0.00 | 0.09 | 0.01 | 76 | 1016.0 |
| 20260506090910 | 55 | 41 | 1.0 | 5.0 | 0.00 | 0.09 | 0.01 | 79 | 1016.0 |
| 20260506090410 | 55 | 41 | 2.0 | 7.0 | 0.00 | 0.09 | 0.01 | 79 | 1016.0 |
| 20260506085911 | 56 | 41 | 3.0 | 7.0 | 0.00 | 0.09 | 0.01 | 79 | 1016.1 |
| 20260506085410 | 55 | 41 | 1.0 | 3.0 | 0.00 | 0.09 | 0.01 | 79 | 1016.1 |
| 20260506084910 | 55 | 41 | 2.0 | 6.0 | 0.00 | 0.09 | 0.01 | 80 | 1016.1 |
| 20260506084409 | 55 | 41 | 1.0 | 3.0 | 0.00 | 0.09 | 0.01 | 81 | 1016.1 |
| 20260506083910 | 55 | 41 | 1.0 | 5.0 | 0.00 | 0.09 | 0.01 | 85 | 1016.1 |
| 20260506083410 | 54 | 41 | 1.0 | 5.0 | 0.00 | 0.09 | 0.01 | 86 | 1016.0 |
| 20260506082911 | 53 | 41 | 2.0 | 5.0 | 0.00 | 0.09 | 0.01 | 88 | 1016.0 |
| 20260506082410 | 53 | 41 | 3.0 | 7.0 | 0.00 | 0.09 | 0.01 | 89 | 1016.0 |
| 20260506081910 | 52 | 180 | 1.0 | 3.0 | 0.00 | 0.09 | 0.01 | 91 | 1016.0 |
| 20260506080910 | 52 | 180 | 1.0 | 3.0 | 0.00 | 0.09 | 0.01 | 92 | 1016.1 |
| 20260506080410 | 51 | 180 | 1.0 | 3.0 | 0.00 | 0.09 | 0.01 | 93 | 1016.1 |
| 20260506073410 | 49 | 182 | 2.0 | 5.0 | 0.00 | 0.09 | 0.01 | 100 | 1016.1 |
| 20260506072911 | 48 | 183 | 2.0 | 5.0 | 0.00 | 0.09 | 0.01 | 100 | 1016.2 |
| 20260506072411 | 48 | 184 | 3.0 | 5.0 | 0.00 | 0.09 | 0.01 | 100 | 1016.1 |
| 20260506071910 | 48 | 187 | 0.0 | 3.0 | 0.00 | 0.09 | 0.01 | 100 | 1016.1 |
| 20260506071410 | 48 | 194 | 0.0 | 2.0 | 0.00 | 0.09 | 0.01 | 100 | 1016.2 |
| 20260506070410 | 47 | 194 | 0.0 | 3.0 | 0.00 | 0.09 | 0.01 | 100 | 1016.2 |
| 20260506062410 | 43 | 194 | 0.0 | 2.0 | 0.01 | 0.09 | 0.01 | 99 | 1016.0 |
| 20260506061910 | 43 | 194 | 0.0 | 0.0 | 0.01 | 0.09 | 0.01 | 99 | 1016.0 |
| 20260506061410 | 43 | 194 | 0.0 | 0.0 | 0.01 | 0.09 | 0.01 | 99 | 1015.9 |
| 20260506060910 | 43 | 194 | 0.0 | 0.0 | 0.01 | 0.09 | 0.01 | 99 | 1016.0 |
| 20260506060409 | 43 | 194 | 0.0 | 1.0 | 0.01 | 0.09 | 0.01 | 99 | 1016.1 |
| 20260506050910 | 44 | 194 | 1.0 | 3.0 | 0.00 | 0.09 | 0.00 | 99 | 1015.9 |
| 20260506050413 | 44 | 194 | 1.0 | 3.0 | 0.00 | 0.09 | 0.00 | 99 | 1015.8 |
| 20260506044910 | 45 | 194 | 1.0 | 2.0 | 0.00 | 0.09 | 0.00 | 99 | 1015.8 |
| 20260506043911 | 45 | 194 | 0.0 | 0.0 | 0.00 | 0.09 | 0.00 | 99 | 1015.7 |
| 20260506043410 | 45 | 194 | 0.0 | 0.0 | 0.00 | 0.09 | 0.00 | 99 | 1015.7 |
| 20260506042911 | 45 | 194 | 2.0 | 3.0 | 0.00 | 0.09 | 0.00 | 99 | 1015.7 |
| 20260506042410 | 46 | 194 | 2.0 | 3.0 | 0.00 | 0.09 | 0.00 | 99 | 1015.8 |
| 20260506041910 | 46 | 194 | 2.0 | 3.0 | 0.00 | 0.09 | 0.00 | 99 | 1015.7 |
| 20260506041410 | 46 | 194 | 1.0 | 3.0 | 0.00 | 0.09 | 0.00 | 99 | 1015.8 |
| 20260506040910 | 46 | 194 | 1.0 | 3.0 | 0.00 | 0.09 | 0.00 | 99 | 1015.9 |
| 20260506040410 | 46 | 194 | 1.0 | 5.0 | 0.00 | 0.09 | 0.00 | 99 | 1015.9 |
| 20260506035911 | 46 | 197 | 4.0 | 6.0 | 0.00 | 0.09 | 0.00 | 99 | 1015.8 |
| 20260506034910 | 47 | 197 | 1.0 | 3.0 | 0.00 | 0.09 | 0.00 | 99 | 1015.9 |
| 20260506034410 | 47 | 197 | 1.0 | 3.0 | 0.00 | 0.09 | 0.00 | 99 | 1015.9 |
| 20260506033910 | 47 | 197 | 1.0 | 2.0 | 0.00 | 0.09 | 0.00 | 99 | 1015.9 |
| 20260506033410 | 47 | 197 | 1.0 | 3.0 | 0.00 | 0.09 | 0.00 | 99 | 1015.9 |
| 20260506032911 | 47 | 197 | 2.0 | 3.0 | 0.00 | 0.09 | 0.00 | 98 | 1016.0 |
| 20260506032410 | 47 | 197 | 2.0 | 3.0 | 0.00 | 0.09 | 0.00 | 98 | 1015.9 |
| 20260506031910 | 47 | 197 | 0.0 | 3.0 | 0.00 | 0.09 | 0.00 | 98 | 1015.9 |
| 20260506031410 | 48 | 197 | 0.0 | 2.0 | 0.00 | 0.09 | 0.00 | 98 | 1015.9 |
| 20260506030910 | 48 | 197 | 0.0 | 2.0 | 0.00 | 0.09 | 0.00 | 99 | 1016.0 |
| 20260506030411 | 48 | 197 | 0.0 | 2.0 | 0.00 | 0.09 | 0.00 | 98 | 1016.0 |
| 20260506025911 | 48 | 197 | 0.0 | 2.0 | 0.00 | 0.09 | 0.00 | 98 | 1016.0 |
| 20260506025410 | 48 | 197 | 0.0 | 0.0 | 0.00 | 0.09 | 0.00 | 98 | 1016.0 |
| 20260506024910 | 48 | 197 | 0.0 | 3.0 | 0.00 | 0.09 | 0.00 | 98 | 1016.0 |
| 20260506023910 | 49 | 197 | 0.0 | 0.0 | 0.00 | 0.09 | 0.00 | 99 | 1015.9 |
| 20260506022411 | 49 | 197 | 0.0 | 0.0 | 0.00 | 0.09 | 0.00 | 99 | 1016.1 |
| 20260506021410 | 49 | 197 | 0.0 | 0.0 | 0.00 | 0.09 | 0.00 | 99 | 1016.1 |
| 20260506015911 | 49 | 197 | 0.0 | 2.0 | 0.00 | 0.09 | 0.00 | 98 | 1016.2 |
| 20260506015410 | 49 | 197 | 0.0 | 2.0 | 0.00 | 0.09 | 0.00 | 98 | 1016.3 |
| 20260506014910 | 49 | 197 | 1.0 | 2.0 | 0.00 | 0.09 | 0.00 | 98 | 1016.3 |
| 20260506014410 | 49 | 197 | 0.0 | 1.0 | 0.00 | 0.09 | 0.00 | 98 | 1016.4 |
| 20260506013910 | 49 | 197 | 0.0 | 0.0 | 0.00 | 0.09 | 0.00 | 98 | 1016.4 |
| 20260506013410 | 49 | 197 | 0.0 | 0.0 | 0.00 | 0.09 | 0.00 | 98 | 1016.5 |
| 20260506012911 | 49 | 197 | 0.0 | 2.0 | 0.00 | 0.09 | 0.00 | 98 | 1016.5 |
| 20260506012410 | 49 | 197 | 2.0 | 2.0 | 0.00 | 0.09 | 0.00 | 98 | 1016.6 |
| 20260506011910 | 49 | 197 | 0.0 | 2.0 | 0.00 | 0.09 | 0.00 | 98 | 1016.6 |
| 20260506011410 | 50 | 197 | 0.0 | 1.0 | 0.00 | 0.09 | 0.00 | 98 | 1016.6 |
| 20260506010910 | 50 | 197 | 0.0 | 0.0 | 0.00 | 0.09 | 0.00 | 98 | 1016.6 |
| 20260506010411 | 50 | 197 | 0.0 | 0.0 | 0.00 | 0.09 | 0.00 | 98 | 1016.7 |
| 20260506005911 | 50 | 197 | 0.0 | 0.0 | 0.00 | 0.09 | 0.00 | 98 | 1016.7 |
| 20260506005410 | 50 | 197 | 0.0 | 0.0 | 0.00 | 0.09 | 0.00 | 98 | 1016.7 |
| 20260506004910 | 50 | 197 | 0.0 | 0.0 | 0.00 | 0.09 | 0.00 | 98 | 1016.8 |
| 20260506004410 | 50 | 197 | 0.0 | 0.0 | 0.00 | 0.09 | 0.00 | 98 | 1016.8 |
| 20260506003910 | 50 | 197 | 0.0 | 0.0 | 0.00 | 0.09 | 0.00 | 98 | 1016.9 |
| 20260506002911 | 50 | 197 | 0.0 | 0.0 | 0.00 | 0.09 | 0.00 | 98 | 1017.0 |
| 20260506002410 | 50 | 197 | 0.0 | 0.0 | 0.00 | 0.09 | 0.00 | 98 | 1017.0 |
| 20260506001910 | 50 | 197 | 0.0 | 0.0 | 0.00 | 0.09 | 0.00 | 98 | 1017.1 |
| 20260506000910 | 50 | 197 | 0.0 | 0.0 | 0.00 | 0.09 | 0.00 | 98 | 1017.2 |
| 20260506000410 | 50 | 197 | 0.0 | 0.0 | 0.00 | 0.09 | 0.00 | 98 | 1017.2 |
| 20260505235911 | 51 | 197 | 0.0 | 0.0 | 0.00 | 0.09 | 0.00 | 98 | 1017.2 |
| 20260505235410 | 51 | 197 | 0.0 | 0.0 | 0.00 | 0.09 | 0.00 | 98 | 1017.2 |
| 20260505234410 | 51 | 197 | 0.0 | 0.0 | 0.00 | 0.09 | 0.00 | 98 | 1017.2 |
| 20260505233911 | 51 | 197 | 0.0 | 0.0 | 0.00 | 0.09 | 0.00 | 98 | 1017.3 |
| 20260505233411 | 51 | 197 | 0.0 | 0.0 | 0.00 | 0.09 | 0.00 | 98 | 1017.2 |
| 20260505232911 | 51 | 197 | 0.0 | 0.0 | 0.00 | 0.09 | 0.00 | 98 | 1017.2 |
| 20260505232410 | 51 | 197 | 0.0 | 0.0 | 0.00 | 0.09 | 0.00 | 98 | 1017.2 |
| 20260505231910 | 51 | 197 | 0.0 | 0.0 | 0.00 | 0.09 | 0.00 | 98 | 1017.2 |
| 20260505231411 | 51 | 197 | 1.0 | 2.0 | 0.00 | 0.09 | 0.00 | 98 | 1017.2 |
| 20260505230910 | 51 | 197 | 0.0 | 0.0 | 0.00 | 0.09 | 0.00 | 98 | 1017.2 |
| 20260505225911 | 51 | 197 | 0.0 | 0.0 | 0.00 | 0.09 | 0.00 | 98 | 1017.3 |
| 20260505225410 | 51 | 197 | 0.0 | 0.0 | 0.00 | 0.09 | 0.00 | 98 | 1017.3 |
| 20260505224911 | 51 | 197 | 0.0 | 0.0 | 0.00 | 0.09 | 0.00 | 98 | 1017.2 |
| 20260505224411 | 51 | 197 | 0.0 | 0.0 | 0.00 | 0.09 | 0.00 | 98 | 1017.3 |
| 20260505222410 | 51 | 197 | 1.0 | 3.0 | 0.00 | 0.09 | 0.00 | 97 | 1017.4 |
| 20260505221910 | 51 | 197 | 2.0 | 3.0 | 0.00 | 0.09 | 0.00 | 97 | 1017.4 |
| 20260505221411 | 51 | 197 | 1.0 | 3.0 | 0.00 | 0.09 | 0.00 | 97 | 1017.3 |
| 20260505220910 | 51 | 197 | 0.0 | 0.0 | 0.00 | 0.09 | 0.00 | 97 | 1017.3 |
| 20260505220410 | 51 | 197 | 0.0 | 0.0 | 0.00 | 0.09 | 0.00 | 97 | 1017.3 |
| 20260505215911 | 51 | 197 | 0.0 | 1.0 | 0.00 | 0.09 | 0.00 | 97 | 1017.3 |
| 20260505214910 | 51 | 197 | 4.0 | 6.0 | 0.00 | 0.09 | 0.09 | 97 | 1017.3 |
| 20260505214410 | 51 | 197 | 5.0 | 6.0 | 0.00 | 0.09 | 0.09 | 97 | 1017.3 |
| 20260505213911 | 51 | 197 | 2.0 | 3.0 | 0.00 | 0.09 | 0.09 | 97 | 1017.3 |
| 20260505213410 | 51 | 195 | 0.0 | 0.0 | 0.00 | 0.09 | 0.09 | 97 | 1017.4 |
| 20260505211910 | 51 | 195 | 2.0 | 3.0 | 0.00 | 0.09 | 0.09 | 97 | 1017.3 |
| 20260505211411 | 51 | 195 | 3.0 | 5.0 | 0.00 | 0.09 | 0.09 | 97 | 1017.3 |
| 20260505210910 | 51 | 195 | 5.0 | 5.0 | 0.00 | 0.09 | 0.09 | 97 | 1017.3 |
| 20260505210410 | 51 | 195 | 5.0 | 6.0 | 0.00 | 0.09 | 0.09 | 97 | 1017.3 |
| 20260505205411 | 51 | 195 | 4.0 | 5.0 | 0.00 | 0.09 | 0.09 | 96 | 1017.3 |
| 20260505204910 | 51 | 195 | 2.0 | 5.0 | 0.00 | 0.09 | 0.09 | 96 | 1017.3 |
| 20260505204410 | 51 | 195 | 3.0 | 5.0 | 0.00 | 0.09 | 0.09 | 96 | 1017.3 |
| 20260505203910 | 51 | 195 | 2.0 | 3.0 | 0.00 | 0.09 | 0.09 | 96 | 1017.2 |
| 20260505203410 | 51 | 195 | 0.0 | 0.0 | 0.00 | 0.09 | 0.09 | 96 | 1017.2 |
| 20260505202410 | 52 | 195 | 0.0 | 0.0 | 0.00 | 0.09 | 0.09 | 96 | 1017.2 |
| 20260505201910 | 52 | 195 | 0.0 | 0.0 | 0.00 | 0.09 | 0.09 | 96 | 1017.1 |
| 20260505201410 | 52 | 195 | 0.0 | 0.0 | 0.00 | 0.09 | 0.09 | 96 | 1017.0 |
| 20260505200411 | 52 | 195 | 0.0 | 0.0 | 0.00 | 0.09 | 0.09 | 95 | 1016.9 |
| 20260505195410 | 52 | 195 | 1.0 | 3.0 | 0.00 | 0.10 | 0.09 | 95 | 1016.7 |
| 20260505194910 | 52 | 195 | 0.0 | 0.0 | 0.00 | 0.11 | 0.09 | 95 | 1016.7 |
| 20260505194410 | 52 | 195 | 0.0 | 0.0 | 0.00 | 0.11 | 0.09 | 94 | 1016.6 |
| 20260505193910 | 52 | 195 | 0.0 | 0.0 | 0.00 | 0.11 | 0.09 | 93 | 1016.6 |
| 20260505193410 | 52 | 195 | 0.0 | 0.0 | 0.00 | 0.11 | 0.09 | 93 | 1016.6 |
| 20260505192411 | 53 | 195 | 1.0 | 5.0 | 0.00 | 0.13 | 0.09 | 93 | 1016.4 |
| 20260505191911 | 53 | 195 | 3.0 | 5.0 | 0.00 | 0.13 | 0.09 | 93 | 1016.3 |
| 20260505191410 | 53 | 195 | 2.0 | 5.0 | 0.00 | 0.13 | 0.09 | 93 | 1016.3 |
| 20260505190410 | 54 | 195 | 1.0 | 2.0 | 0.00 | 0.14 | 0.09 | 93 | 1016.4 |
| 20260505185912 | 54 | 223 | 0.0 | 0.0 | 0.00 | 0.14 | 0.09 | 94 | 1016.4 |
| 20260505184911 | 54 | 223 | 3.0 | 6.0 | 0.01 | 0.15 | 0.09 | 95 | 1016.2 |
| 20260505184410 | 54 | 223 | 3.0 | 6.0 | 0.01 | 0.15 | 0.09 | 95 | 1016.2 |
| 20260505183411 | 54 | 223 | 5.0 | 5.0 | 0.02 | 0.15 | 0.09 | 95 | 1016.3 |
| 20260505182911 | 55 | 223 | 4.0 | 5.0 | 0.02 | 0.15 | 0.09 | 95 | 1016.3 |
| 20260505182410 | 55 | 223 | 1.0 | 5.0 | 0.02 | 0.15 | 0.09 | 94 | 1016.3 |
| 20260505181911 | 55 | 223 | 1.0 | 3.0 | 0.02 | 0.15 | 0.09 | 94 | 1016.2 |
| 20260505180910 | 55 | 223 | 3.0 | 5.0 | 0.02 | 0.15 | 0.09 | 92 | 1016.4 |
| 20260505180410 | 56 | 223 | 3.0 | 6.0 | 0.02 | 0.15 | 0.09 | 91 | 1016.3 |
| 20260505175912 | 56 | 223 | 4.0 | 5.0 | 0.02 | 0.15 | 0.09 | 92 | 1016.4 |
| 20260505175410 | 56 | 223 | 5.0 | 7.0 | 0.02 | 0.15 | 0.09 | 91 | 1016.4 |
| 20260505174910 | 56 | 222 | 4.0 | 6.0 | 0.02 | 0.14 | 0.08 | 91 | 1016.4 |
| 20260505174410 | 56 | 222 | 3.0 | 6.0 | 0.02 | 0.14 | 0.08 | 91 | 1016.4 |
| 20260505173910 | 56 | 222 | 2.0 | 3.0 | 0.01 | 0.13 | 0.07 | 91 | 1016.5 |
| 20260505173411 | 56 | 222 | 0.0 | 1.0 | 0.00 | 0.13 | 0.06 | 91 | 1016.5 |
| 20260505172911 | 56 | 222 | 0.0 | 3.0 | 0.00 | 0.13 | 0.06 | 92 | 1016.4 |
| 20260505172411 | 56 | 222 | 0.0 | 3.0 | 0.00 | 0.13 | 0.06 | 92 | 1016.3 |
| 20260505171910 | 56 | 222 | 1.0 | 3.0 | 0.00 | 0.13 | 0.06 | 91 | 1016.3 |
| 20260505171410 | 56 | 222 | 1.0 | 5.0 | 0.00 | 0.13 | 0.06 | 91 | 1016.3 |
| 20260505170910 | 56 | 222 | 2.0 | 5.0 | 0.00 | 0.13 | 0.06 | 91 | 1016.4 |
| 20260505170411 | 56 | 222 | 0.0 | 3.0 | 0.00 | 0.13 | 0.06 | 89 | 1016.4 |
| 20260505165912 | 56 | 222 | 5.0 | 6.0 | 0.00 | 0.13 | 0.06 | 89 | 1016.4 |
| 20260505165410 | 56 | 222 | 5.0 | 8.0 | 0.00 | 0.13 | 0.06 | 88 | 1016.4 |
| 20260505164911 | 56 | 222 | 4.0 | 8.0 | 0.00 | 0.13 | 0.06 | 87 | 1016.3 |
| 20260505164410 | 56 | 222 | 0.0 | 2.0 | 0.00 | 0.13 | 0.06 | 88 | 1016.2 |
| 20260505162911 | 57 | 222 | 3.0 | 8.0 | 0.00 | 0.13 | 0.06 | 88 | 1016.3 |
| 20260505162410 | 57 | 223 | 6.0 | 8.0 | 0.00 | 0.13 | 0.06 | 86 | 1016.3 |
| 20260505161910 | 56 | 223 | 0.0 | 3.0 | 0.00 | 0.13 | 0.06 | 80 | 1016.3 |
| 20260505161410 | 57 | 223 | 1.0 | 5.0 | 0.00 | 0.13 | 0.06 | 85 | 1016.3 |
| 20260505160910 | 56 | 222 | 1.0 | 7.0 | 0.00 | 0.13 | 0.06 | 84 | 1016.4 |
| 20260505152911 | 55 | 9 | 2.0 | 7.0 | 0.05 | 0.13 | 0.06 | 86 | 1016.5 |
| 20260505152410 | 55 | 310 | 2.0 | 6.0 | 0.06 | 0.13 | 0.06 | 90 | 1016.5 |
| 20260505151910 | 54 | 15 | 2.0 | 7.0 | 0.06 | 0.13 | 0.06 | 90 | 1016.6 |
| 20260505151410 | 54 | 15 | 1.0 | 6.0 | 0.06 | 0.13 | 0.06 | 88 | 1016.5 |
| 20260505150911 | 53 | 15 | 6.0 | 8.0 | 0.06 | 0.13 | 0.06 | 89 | 1016.6 |
| 20260505140430 | 59 | 231 | 9.0 | 15.0 | 0.00 | 0.12 | 0.01 | 79 | 1016.5 |